Wind_Speed
6 6 6 5 5 5 4 4 3 3 2 1 1 1 1 2 2 3 3 2 1 2 2 2 3 3 3 3 4 5 6 6 6 7 7 7 7 7 7 8 7 7 8
6 7 7 7 6 6 5 4 4 3 3 2 2 2 2 2 3 3 3 3 3 2 2 2 3 4 4 4 4 4 5 6 6 6 6 7 7 7 7 8 8 9 8
7 7 7 7 7 7 6 6 5 5 4 3 4 3 3 3 4 4 4 4 4 4 4 4 4 4 5 5 5 5 6 7 8 8 8 9 9 9 8 9 9 8 8
8 8 7 8 7 7 7 7 6 6 6 5 4 5 5 5 5 5 5 5 5 5 5 5 6 6 6 7 7 7 7 8 9 9 9 10 10 10 10 10 11 11 11
9 9 8 9 8 8 7 7 7 7 7 6 5 6 6 6 6 6 6 6 6 7 7 7 7 8 8 8 8 8 8 8 9 10 10 11 11 11 11 11 12 12 13
9 9 9 9 9 9 9 9 8 8 8 8 8 7 7 8 7 7 8 8 8 8 8 8 8 9 9 9 9 9 9 9 10 10 11 11 12 12 13 13 14 14 14
10 10 10 10 10 10 10 9 9 10 10 10 10 9 9 9 9 9 8 9 9 10 10 10 10 10 10 10 10 11 11 11 11 11 11 12 12 13 14 14 15 15 14
12 12 12 11 12 12 11 11 11 11 12 11 11 11 11 11 11 11 11 11 11 12 12 12 12 11 11 12 12 12 13 12 13 13 13 13 14 14 14 14 14 15 15
13 14 14 14 14 13 13 13 14 14 14 14 14 13 13 13 13 14 14 14 14 14 14 14 14 14 13 13 13 14 14 15 15 15 15 15 15 16 16 16 16 16 17
16 16 16 16 16 16 15 15 15 16 16 16 16 16 16 16 16 16 16 16 16 16 16 16 16 16 16 16 16 16 16 17 17 17 17 17 17 17 18 18 19 19 19
18 17 18 17 17 17 17 17 17 16 17 17 18 18 17 18 18 18 18 18 18 18 18 17 17 17 18 18 18 18 18 18 19 19 19 20 20 20 20 20 20 21 21
19 18 18 18 17 17 17 17 17 17 18 18 19 20 20 20 20 20 21 20 20 20 19 19 19 19 20 20 20 20 20 20 20 21 21 21 21 21 22 22 22 23 23
19 19 20 20 19 19 18 19 19 20 20 20 21 21 22 23 23 23 23 23 22 22 21 21 21 21 21 22 22 22 22 23 22 23 23 23 23 23 24 24 24 25 26
21 21 21 22 22 20 20 20 21 21 21 21 22 23 23 24 25 25 25 25 25 24 23 23 23 23 24 24 24 24 25 25 25 25 25 25 25 26 25 26 27 27 27
22 23 23 23 23 22 22 22 23 23 23 22 23 23 24 24 25 26 27 26 26 26 26 25 25 25 25 25 26 26 26 26 25 26 26 26 26 27 27 27 28 28 28
24 24 25 25 25 25 25 25 25 24 24 24 24 24 25 25 26 27 28 28 28 28 28 27 27 27 28 27 28 28 28 27 28 27 27 27 27 28 28 29 30 30 29
25 25 26 26 26 26 25 25 26 26 25 25 25 25 26 26 26 27 28 29 29 29 30 29 29 29 30 29 29 29 29 28 29 29 28 28 28 29 29 30 30 31 30
26 26 26 26 27 26 26 26 26 27 27 26 26 26 27 28 28 28 29 29 30 30 30 30 30 30 30 31 30 30 30 30 29 29 29 29 29 29 29 29 29 29 29
26 26 26 27 27 27 27 27 28 28 28 28 27 27 28 29 30 30 30 31 31 31 31 31 31 31 30 31 31 31 31 31 31 30 30 30 30 30 30 30 30 31 31
28 27 27 28 28 28 29 29 29 29 29 29 29 28 29 30 31 31 32 32 32 32 32 31 31 31 31 32 32 32 32 31 30 30 31 31 31 32 32 32 32 32 33
29 28 29 29 29 29 30 30 30 30 29 29 29 29 29 30 30 30 31 32 32 32 32 31 31 32 32 33 33 33 33 32 31 31 32 32 32 33 34 34 33 33 33
29 29 29 29 29 29 30 30 30 30 30 29 29 29 28 28 28 29 29 29 30 31 32 32 32 32 32 32 33 34 34 34 33 32 32 32 33 34 34 33 33 33 33
29 29 29 29 29 29 29 30 30 31 30 30 30 29 28 28 28 28 28 28 29 30 30 31 33 33 32 32 33 34 33 33 33 33 33 33 34 34 34 33 33 33 32
28 28 28 29 29 29 29 30 30 30 29 30 30 30 29 29 28 29 29 29 30 30 31 31 30 31 32 33 34 34 33 33 32 32 33 34 34 34 33 33 33 33 31
28 28 28 28 29 29 28 28 29 30 30 30 30 30 30 30 30 29 29 28 28 29 30 30 30 29 30 31 32 33 33 33 32 32 33 34 35 34 33 32 32 32 31
27 27 27 27 27 28 28 28 29 29 30 30 30 31 31 31 31 31 31 30 30 29 29 30 30 30 30 30 31 32 32 32 33 33 32 32 32 33 33 32 31 31 30
Wind_Direction
320 318 319 319 314 311 307 301 310 322 301 286 294 295 221 206 206 209 205 210 204 206 221 222 228 232 241 248 254 254 252 254 257 265 268 274 280 282 280 279 278 282 287
320 318 312 310 307 304 303 291 287 291 293 262 260 265 269 259 241 245 245 240 241 247 253 245 246 246 250 257 261 264 265 263 264 269 269 268 276 282 276 275 280 285 288
314 315 309 305 301 299 294 287 286 283 290 278 261 259 265 269 262 256 255 253 254 257 258 258 266 269 264 265 266 269 273 273 272 272 273 272 276 279 279 278 281 285 289
307 308 305 302 298 292 286 282 279 282 280 277 272 261 262 266 263 262 261 261 263 266 266 264 267 270 267 270 272 271 275 278 277 277 279 278 280 281 282 281 282 285 288
303 305 301 296 292 283 281 281 277 278 273 268 271 271 268 269 269 268 268 268 270 273 274 272 269 272 273 274 275 274 277 279 280 279 278 279 280 282 283 281 284 288 289
301 301 299 294 289 283 279 279 275 277 275 269 268 270 273 270 270 274 271 271 276 278 277 276 275 278 278 278 277 275 278 282 283 283 281 282 285 287 285 283 284 289 291
298 298 294 290 285 281 278 274 272 272 272 268 267 264 269 267 268 271 272 271 273 275 277 280 280 282 278 277 278 277 277 280 283 285 284 285 288 290 289 285 283 287 289
292 291 291 287 286 284 274 271 273 273 271 268 265 267 268 266 266 269 270 271 272 273 278 280 280 280 280 281 283 280 276 279 281 282 283 284 287 290 291 288 287 288 289
285 283 284 285 285 286 277 272 272 271 269 266 265 268 266 266 266 267 269 271 273 273 277 282 279 279 281 283 285 285 277 277 280 280 282 283 284 285 287 288 288 288 288
281 280 281 283 283 283 281 274 272 269 265 264 265 267 268 268 268 267 268 270 273 274 276 280 279 277 279 283 286 286 280 278 279 280 280 282 283 285 287 287 287 289 290
279 277 279 282 283 281 280 277 273 270 266 264 265 267 269 269 267 268 269 270 272 274 276 277 281 279 280 283 284 284 281 279 278 280 280 280 281 283 284 285 286 287 288
275 276 277 279 280 280 280 279 275 271 268 266 266 267 269 269 268 268 268 269 270 272 274 277 278 279 278 280 282 283 280 279 279 279 280 280 281 282 282 283 284 286 287
274 274 273 273 275 278 279 279 276 273 271 271 271 271 271 271 269 268 267 267 269 270 272 275 276 276 278 280 280 282 279 279 278 279 279 280 280 281 282 283 284 285 287
275 272 270 271 272 275 277 279 279 278 277 275 274 274 273 271 270 268 267 267 267 268 270 273 274 275 277 278 279 280 279 279 278 279 279 279 278 280 282 283 284 285 287
272 270 269 270 272 274 275 276 278 279 279 278 277 276 273 272 271 270 268 266 267 267 268 270 272 274 276 277 278 278 278 279 279 278 277 277 277 279 281 282 282 283 285
270 270 269 269 270 272 275 277 277 277 278 279 278 277 275 273 273 271 269 269 268 267 268 269 271 273 275 276 277 277 277 277 277 276 276 274 275 279 280 282 282 283 283
270 270 268 268 269 271 274 276 277 277 279 279 278 276 275 275 275 273 272 271 269 269 269 270 272 274 275 276 275 274 275 276 276 276 275 274 276 278 280 282 283 281 282
270 269 267 268 269 269 271 275 276 276 278 280 280 278 277 276 276 275 274 271 269 270 271 271 271 274 276 277 277 276 275 275 275 275 276 277 278 279 281 282 282 281 282
268 268 269 269 269 270 271 272 274 276 276 277 279 280 278 278 277 276 274 272 270 270 271 271 272 273 275 276 277 277 276 276 275 274 275 277 278 278 281 283 282 281 282
269 269 270 270 270 269 270 271 272 273 275 277 278 280 279 278 278 276 274 272 271 270 270 271 272 272 273 275 276 278 278 277 276 276 277 277 277 278 280 281 281 281 282
272 273 273 271 270 270 269 269 271 272 274 277 278 280 280 279 278 276 276 274 271 270 269 271 271 272 272 274 275 276 277 276 276 276 277 277 277 277 278 279 280 281 281
272 273 274 272 271 271 270 269 271 272 274 275 276 278 279 279 279 278 276 275 272 272 272 271 271 272 274 274 275 276 277 275 275 275 276 278 278 278 279 279 281 281 280
273 274 275 274 273 273 272 271 271 274 275 276 277 279 280 279 278 278 277 274 272 271 272 271 270 270 272 274 275 276 276 276 275 276 277 279 279 280 281 281 282 282 279
273 274 275 275 274 274 273 273 273 274 277 279 279 280 280 279 278 279 278 277 274 273 272 272 272 272 273 275 276 276 276 276 276 276 278 278 280 282 282 282 282 281 280
272 273 275 275 275 275 273 273 274 276 278 279 278 278 277 278 278 279 279 278 275 274 275 275 275 276 277 276 275 275 276 276 276 277 277 278 279 280 280 281 280 280 279
274 275 276 276 276 275 274 274 276 276 277 277 277 277 277 278 278 278 277 278 279 279 278 279 278 279 278 276 275 275 276 276 276 276 276 277 278 279 280 280 279 279 279
Height
5915 5914 5913 5912 5910 5910 5909 5908 5907 5906 5905 5905 5904 5903 5903 5903 5902 5902 5902 5902 5902 5903 5903 5903 5902 5902 5902 5902 5902 5902 5901 5901 5901 5901 5901 5900 5900 5899 5899 5898 5898 5898 5897
5915 5914 5912 5911 5910 5909 5908 5907 5907 5906 5905 5904 5904 5903 5903 5903 5902 5902 5902 5902 5902 5902 5902 5902 5902 5902 5902 5901 5901 5901 5900 5900 5900 5900 5899 5899 5899 5898 5898 5897 5896 5896 5895
5914 5913 5912 5910 5909 5908 5907 5907 5906 5905 5905 5904 5903 5903 5903 5903 5902 5902 5902 5902 5902 5902 5902 5901 5901 5901 5901 5901 5900 5900 5899 5899 5898 5898 5898 5898 5897 5897 5896 5895 5895 5894 5894
5913 5912 5911 5910 5909 5907 5906 5905 5905 5904 5904 5903 5903 5902 5902 5902 5902 5901 5901 5901 5901 5901 5901 5900 5900 5900 5900 5900 5899 5898 5898 5898 5897 5896 5896 5896 5895 5894 5894 5893 5893 5892 5891
5912 5911 5909 5908 5907 5906 5905 5905 5904 5903 5903 5903 5902 5902 5902 5901 5901 5901 5900 5900 5900 5900 5899 5899 5899 5898 5898 5898 5897 5897 5896 5896 5895 5894 5894 5893 5893 5892 5892 5891 5890 5889 5889
5910 5909 5908 5907 5905 5904 5904 5903 5902 5902 5901 5901 5901 5901 5900 5900 5900 5899 5899 5899 5899 5898 5898 5897 5897 5896 5896 5896 5895 5895 5894 5894 5893 5892 5892 5891 5890 5889 5889 5888 5888 5886 5885
5908 5907 5906 5905 5903 5902 5901 5900 5900 5900 5900 5899 5899 5899 5898 5898 5898 5897 5897 5897 5896 5896 5895 5895 5895 5894 5894 5893 5893 5892 5892 5891 5891 5890 5889 5888 5887 5887 5886 5885 5885 5884 5882
5906 5905 5903 5902 5901 5900 5899 5898 5898 5897 5897 5897 5897 5896 5896 5895 5895 5895 5894 5894 5894 5893 5893 5892 5892 5892 5891 5890 5890 5889 5889 5888 5888 5887 5886 5885 5884 5884 5883 5882 5881 5880 5879
5903 5902 5901 5900 5898 5897 5896 5896 5895 5894 5894 5894 5893 5893 5893 5892 5892 5892 5891 5891 5890 5890 5889 5889 5889 5888 5888 5887 5886 5885 5885 5884 5884 5883 5883 5882 5881 5880 5879 5878 5877 5877 5875
5899 5898 5897 5896 5895 5894 5893 5892 5891 5891 5890 5890 5889 5889 5889 5888 5888 5888 5888 5887 5887 5886 5886 5885 5884 5884 5884 5883 5882 5881 5881 5880 5880 5879 5879 5878 5877 5876 5875 5873 5872 5871 5870
5894 5893 5892 5892 5890 5889 5888 5887 5887 5886 5886 5886 5885 5885 5884 5884 5884 5884 5883 5883 5883 5882 5881 5881 5880 5879 5879 5878 5878 5877 5877 5876 5875 5875 5874 5873 5872 5871 5870 5869 5867 5866 5865
5889 5888 5888 5887 5886 5885 5884 5883 5882 5882 5881 5881 5881 5880 5880 5879 5879 5879 5878 5878 5878 5877 5877 5876 5875 5875 5874 5873 5873 5872 5871 5870 5870 5869 5869 5868 5866 5865 5864 5863 5862 5860 5859
5883 5883 5882 5882 5881 5880 5879 5878 5877 5877 5876 5876 5875 5875 5874 5874 5873 5873 5872 5872 5872 5872 5871 5870 5870 5869 5868 5867 5867 5866 5865 5864 5864 5863 5862 5861 5860 5859 5858 5857 5855 5854 5852
5877 5877 5877 5876 5875 5874 5874 5873 5872 5871 5870 5870 5869 5869 5868 5867 5866 5866 5866 5866 5865 5865 5865 5864 5863 5863 5862 5861 5860 5859 5858 5858 5857 5856 5855 5855 5854 5853 5851 5850 5848 5847 5845
5871 5871 5870 5870 5869 5868 5868 5867 5866 5865 5864 5863 5863 5862 5861 5860 5859 5859 5858 5858 5858 5858 5858 5857 5857 5856 5855 5854 5853 5852 5851 5850 5849 5849 5848 5847 5846 5845 5844 5842 5841 5839 5837
5864 5864 5863 5863 5862 5862 5861 5860 5859 5858 5857 5857 5856 5855 5854 5853 5852 5852 5851 5851 5851 5851 5850 5850 5849 5848 5847 5846 5845 5844 5843 5842 5842 5841 5840 5839 5839 5838 5837 5835 5832 5831 5829
5857 5856 5856 5855 5855 5855 5854 5853 5852 5851 5850 5849 5848 5847 5847 5846 5845 5844 5843 5843 5843 5843 5842 5842 5842 5841 5840 5839 5837 5836 5835 5834 5834 5833 5832 5831 5831 5830 5828 5826 5824 5822 5821
5849 5848 5848 5847 5847 5847 5846 5846 5845 5844 5843 5842 5841 5839 5838 5837 5836 5835 5835 5834 5834 5834 5834 5834 5833 5833 5832 5830 5829 5828 5827 5826 5825 5825 5824 5823 5822 5821 5820 5818 5816 5814 5813
5840 5840 5840 5840 5839 5839 5838 5838 5837 5836 5835 5834 5833 5831 5830 5829 5828 5826 5826 5825 5824 5824 5824 5825 5824 5824 5823 5822 5821 5820 5819 5818 5817 5816 5815 5815 5814 5813 5811 5810 5808 5806 5805
5832 5831 5831 5831 5831 5830 5830 5830 5829 5828 5827 5826 5824 5823 5821 5820 5818 5817 5816 5815 5815 5815 5815 5815 5815 5815 5815 5814 5812 5811 5810 5810 5809 5808 5807 5806 5805 5804 5802 5800 5799 5797 5796
5824 5823 5823 5823 5822 5822 5821 5821 5820 5819 5818 5817 5815 5814 5812 5811 5809 5808 5807 5806 5806 5806 5806 5806 5806 5806 5805 5805 5804 5803 5802 5801 5800 5799 5798 5797 5796 5794 5793 5791 5790 5788 5786
5815 5815 5814 5814 5813 5813 5813 5812 5812 5810 5809 5808 5807 5805 5804 5802 5801 5800 5799 5798 5797 5797 5797 5797 5797 5796 5796 5796 5795 5794 5793 5792 5792 5791 5790 5788 5787 5785 5783 5782 5781 5779 5777
5807 5806 5806 5805 5804 5804 5804 5803 5803 5801 5800 5799 5798 5797 5795 5794 5793 5791 5790 5790 5789 5788 5788 5787 5786 5786 5787 5786 5785 5785 5783 5782 5782 5782 5781 5779 5778 5776 5774 5773 5772 5770 5768
5798 5797 5797 5796 5795 5795 5794 5794 5793 5792 5791 5790 5789 5788 5787 5786 5785 5784 5782 5781 5781 5780 5779 5779 5777 5776 5776 5776 5775 5774 5774 5773 5772 5772 5771 5770 5768 5767 5766 5764 5763 5761 5759
5790 5789 5788 5787 5786 5786 5785 5784 5784 5783 5782 5781 5780 5779 5778 5777 5776 5775 5774 5772 5772 5771 5770 5770 5769 5768 5767 5766 5765 5764 5764 5763 5763 5762 5761 5760 5759 5758 5756 5755 5754 5752 5750
5781 5781 5780 5779 5778 5777 5776 5775 5774 5774 5773 5772 5771 5770 5769 5768 5767 5766 5765 5764 5763 5762 5761 5760 5759 5759 5758 5757 5756 5755 5754 5753 5753 5752 5751 5750 5750 5748 5747 5746 5744 5743 5741